Date,TemperatureHighF,TemperatureAvgF,TemperatureLowF,DewpointHighF,DewpointAvgF,DewpointLowF,HumidityHigh,HumidityAvg,HumidityLow,PressureMaxIn,PressureMinIn,WindSpeedMaxMPH,WindSpeedAvgMPH,GustSpeedMaxMPH,PrecipitationSumIn
2013-2-1,48.2,43.2,38.8,44.5,41.3,38.1,100,93,80,29.84,29.46,4,1,9,0.26
2013-2-2,45.7,39.2,32.0,40.5,33.8,27.4,100,81,65,30.25,29.59,4,1,13,0.00
2013-2-3,48.9,40.5,30.0,48.9,38.5,26.6,100,93,84,30.25,29.90,5,1,13,0.00
2013-2-4,54.1,48.8,37.8,49.8,42.4,32.8,100,80,55,29.98,29.71,8,3,20,0.00
2013-2-5,45.9,41.0,36.0,41.0,34.9,29.5,96,80,56,29.71,29.32,11,3,24,0.09
2013-2-6,44.2,39.9,35.1,41.1,36.1,29.7,100,86,75,30.05,29.35,6,2,16,0.07
2013-2-7,47.7,37.7,32.9,36.6,32.2,27.7,100,81,57,30.10,29.89,7,1,13,0.09
2013-2-8,48.7,38.0,31.5,39.3,35.0,31.5,100,90,62,30.14,30.02,4,1,11,0.01
2013-2-9,49.1,37.8,34.2,40.5,36.9,32.8,100,96,91,30.15,29.62,4,1,8,0.07
2013-2-10,41.5,37.6,33.1,41.5,37.6,32.4,100,100,100,29.88,29.28,6,1,15,0.53
2013-2-11,35.1,33.9,33.3,35.1,33.9,33.3,100,100,100,29.77,29.42,2,0,7,0.21
2013-2-12,36.5,34.3,32.7,33.6,32.1,29.8,100,92,84,30.14,29.78,2,0,6,0.01
2013-2-13,45.9,36.4,33.4,45.9,32.7,27.2,100,87,65,30.21,29.72,8,2,37,0.06
2013-2-14,55.8,47.1,39.6,49.6,44.2,39.6,100,90,70,29.98,29.73,8,2,22,0.11
2013-2-15,55.8,44.2,35.4,45.2,39.6,35.4,100,85,61,30.21,29.97,4,0,10,0.00
2013-2-16,53.1,45.5,37.6,42.2,38.7,35.8,95,78,53,30.25,30.19,3,0,6,0.00
2013-2-17,56.1,41.5,34.3,45.9,38.3,34.3,100,90,50,30.21,30.10,5,0,12,0.00
2013-2-18,54.9,41.1,32.7,42.5,37.9,32.7,100,90,61,30.15,29.32,3,0,14,0.00
2013-2-19,60.3,41.5,28.8,47.8,35.8,28.8,100,83,45,30.14,30.04,2,0,22,0.00
2013-2-20,48.2,38.2,34.5,39.4,34.1,28.7,100,86,61,30.26,30.11,4,1,10,0.02
2013-2-21,43.5,34.6,33.1,33.3,26.1,23.5,79,71,64,30.26,30.08,3,1,10,0.00
2013-2-22,36.9,33.7,32.2,28.2,26.0,23.7,81,73,66,30.17,30.10,3,1,10,0.00
2013-2-23,39.9,33.8,32.0,31.5,28.3,25.4,92,80,65,30.20,30.08,2,1,8,0.00
2013-2-24,40.8,34.3,32.7,40.8,30.0,28.9,100,84,78,30.27,29.47,3,1,8,0.00
2013-2-25,40.1,37.6,34.3,38.3,35.8,-1.5,99,94,21,30.52,30.25,4,1,10,0.00
2013-2-26,41.0,38.8,36.5,41.0,38.8,36.5,100,100,100,30.56,30.37,3,1,10,0.15
2013-2-27,50.2,38.9,35.4,40.1,36.5,30.0,100,92,67,30.57,30.11,4,0,8,0.45
2013-2-28,51.8,40.6,34.5,41.6,37.0,33.9,100,88,67,30.48,30.33,3,1,10,0.00